This demonstration page uses our WeatherBlox Daily Observations layout. Learn more.

Left ArrowRight Arrow

44.8408, -93.29828

Hourly Observations for March 4, 2022

Temp ( °F °C ) Dew Point ( °F °C ) Humidity (%) Winds ( mph kmh ) Pressure ( in mb ) Visibility ( mi km ) Precip ( " mm )
12:53 am 00:53 Cloudy 22 -5.6 -1 -18.3 36 36 E 6 9 30.45 1031 10 16 0.00 0.00
1:53 am 01:53 Cloudy 22 -5.6 0 -17.8 38 38 E 5 7 30.45 1031 10 16 0.00 0.00
2:53 am 02:53 Cloudy 23 -5 3 -16.1 42 42 ESE 6 9 30.42 1030 10 16 0.00 0.00
3:53 am 03:53 Cloudy 23 -5 3 -16.1 42 42 E 7 11 30.42 1030 10 16 0.00 0.00
4:53 am 04:53 Cloudy 24 -4.4 4 -15.6 42 42 E 7 11 30.40 1030 10 16 0.00 0.00
5:53 am 05:53 Cloudy 24 -4.4 4 -15.6 42 42 ESE 8 13 30.38 1029 10 16 0.00 0.00
6:53 am 06:53 Cloudy 24 -4.4 5 -15 44 44 ESE 12 19 30.37 1029 10 16 0.00 0.00
7:53 am 07:53 Cloudy 24 -4.4 6 -14.4 46 46 ESE 10 17 30.37 1029 10 16 0.00 0.00
8:53 am 08:53 Cloudy 26 -3.3 8 -13.3 46 46 ESE 14 22 30.36 1028 10 16 0.00 0.00
9:53 am 09:53 Cloudy 29 -1.7 9 -12.8 43 43 ESE 13 20 30.33 1027 10 16 0.00 0.00
10:53 am 10:53 Cloudy 30 -1.1 10 -12.2 43 43 SE 15 24 30.31 1026 10 16 0.00 0.00
11:53 am 11:53 Cloudy 32 0 12 -11.1 43 43 ESE 15 24 30.28 1025 10 16 0.00 0.00
12:53 pm 12:53 Mostly Cloudy 33 0.6 13 -10.6 43 43 ESE 16 26 30.22 1023 10 16 0.00 0.00
1:53 pm 13:53 Cloudy 35 1.7 15 -9.4 44 44 ESE 16 26 30.16 1021 10 16 0.00 0.00
2:53 pm 14:53 Mostly Cloudy 36 2.2 14 -10 40 40 E 18 30 30.12 1020 10 16 0.00 0.00
3:53 pm 15:53 Cloudy 36 2.2 14 -10 40 40 ESE 16 26 30.08 1019 10 16 0.00 0.00
4:53 pm 16:53 Mostly Cloudy 36 2.2 14 -10 40 40 ESE 24 39 30.04 1017 10 16 0.00 0.00
5:53 pm 17:53 Mostly Cloudy 36 2.2 15 -9.4 42 42 ESE 16 26 30.02 1017 10 16 0.00 0.00
6:53 pm 18:53 Mostly Cloudy 35 1.7 16 -8.9 46 46 ESE 12 19 30.04 1017 10 16 0.00 0.00
7:53 pm 19:53 Mostly Cloudy 35 1.7 16 -8.9 46 46 ESE 9 15 30.02 1017 10 16 0.00 0.00
8:53 pm 20:53 Mostly Cloudy 33 0.6 17 -8.3 52 52 E 9 15 30.00 1016 10 16 0.00 0.00
9:53 pm 21:53 Mostly Cloudy with Light Wintry Mix 34 1.1 19 -7.2 54 54 E 12 19 29.99 1016 10 16 0.00 0.00
10:53 pm 22:53 Cloudy with Light Rain 33 0.6 23 -5 66 66 E 10 17 29.96 1015 10 16 0.00 0.00
11:53 pm 23:53 Cloudy with Light Rain 33 0.6 25 -3.9 72 72 E 10 17 29.96 1015 10 16 0.00 0.00

Powered by AerisWeather